Columbus, OH

10:42 AM EDT on May 25, 2017 (GMT -0400)
Port Columbus International

Weather History for KCMH - January, 2013

Change the Weather History Date:

Friday, January 11, 2013

  Actual Average Record
Temperature  
Mean Temperature 52 °F 29 °F  
Max Temperature 61 °F 36 °F 66 °F (1890)
Min Temperature 43 °F 23 °F -11 °F (1886)
Degree Days  
Heating Degree Days 13 36  
Month to date heating degree days 370 389  
Since 1 July heating degree days 2271 2380  
Cooling Degree Days 0 0  
Month to date cooling degree days 0 0  
Year to date cooling degree days 0 0  
Moisture  
Dew Point 47 °F    
Average Humidity 79    
Maximum Humidity 96    
Minimum Humidity 62    
Precipitation  
Precipitation 0.39 in 0.10 in 2.10 in (2005)
Month to date precipitation 0.50 1.02  
Year to date precipitation 0.50 1.02  
Snow  
Snow 0.00 in 0.30 in 6.30 in (1893)
Month to date snowfall 0.4 3.1  
Since 1 July snowfall 16.1 9.2  
Snow Depth 0.00 in    
Sea Level Pressure  
Sea Level Pressure 29.98 in    
Wind  
Wind Speed 11 mph (South)    
Max Wind Speed 23 mph    
Max Gust Speed 26 mph    
Visibility 9 miles    
Events Rain    
T = Trace of Precipitation, MM = Missing Value Source: NWS Daily Summary

Daily Weather History Graph

Daily Weather History Graph

Search for Another Location

Airport or City:

Trip Planner

Search our weather history database for the weather conditions in past years. The results will help you decide how hot, cold, wet, or windy it might be!

Date:

Astronomy

Jan. 11, 2013 Rise Set
Actual Time 7:52 AM EST 5:26 PM EST
Civil Twilight 7:22 AM EST 5:56 PM EST
Nautical Twilight 6:49 AM EST 6:30 PM EST
Astronomical Twilight 6:16 AM EST 7:02 PM EST
Moon 7:24 AM EST (1/11) 5:43 PM EST (1/11)
Length of Visible Light 10h 33m
Length of Day
9h 34m
Waning Crescent, 0% of the Moon is Illuminated
Jan 11
Waning Crescent
Jan 11
New
Jan 18
First Quarter
Jan 26
Full
Feb 3
Last Quarter

Hourly Weather History & Observations

Time (EST) Temp. Windchill Dew Point Humidity Pressure Visibility Wind Dir Wind Speed Gust Speed Precip Events Conditions
12:51 AM 44.1 °F 41.5 °F 32.0 °F 63% 30.17 in 10.0 mi SE 4.6 mph - N/A   Overcast
1:51 AM 43.0 °F 38.2 °F 33.1 °F 68% 30.15 in 10.0 mi SE 8.1 mph - 0.00 in Rain Light Rain
2:51 AM 44.1 °F 39.5 °F 35.1 °F 71% 30.12 in 10.0 mi ESE 8.1 mph - 0.00 in   Overcast
3:51 AM 46.9 °F - 37.0 °F 68% 30.10 in 10.0 mi SE 9.2 mph - 0.00 in Rain Light Rain
4:51 AM 46.9 °F - 42.1 °F 83% 30.05 in 10.0 mi SE 12.7 mph - 0.05 in   Overcast
5:51 AM 48.9 °F - 43.0 °F 80% 30.02 in 10.0 mi SE 12.7 mph - 0.00 in Rain Light Rain
6:51 AM 50.0 °F - 46.9 °F 89% 29.99 in 9.0 mi SE 11.5 mph - 0.05 in Rain Light Rain
7:51 AM 52.0 °F - 48.9 °F 89% 29.96 in 5.0 mi SSE 10.4 mph - 0.04 in Rain Heavy Rain
8:51 AM 52.0 °F - 50.0 °F 93% 29.95 in 5.0 mi SSE 9.2 mph - 0.15 in Rain Light Rain
9:09 AM 53.6 °F - 51.8 °F 94% 29.95 in 4.0 mi South 12.7 mph - 0.01 in Rain Rain
9:51 AM 54.0 °F - 51.1 °F 90% 29.98 in 9.0 mi South 12.7 mph - 0.03 in Rain Light Rain
10:20 AM 53.6 °F - 51.8 °F 94% 29.96 in 10.0 mi South 16.1 mph - 0.02 in Rain Light Rain
10:51 AM 53.6 °F - 51.8 °F 94% 29.93 in 5.0 mi SSE 17.3 mph - N/A Rain Rain
11:51 AM 57.9 °F - 54.0 °F 87% 29.93 in 10.0 mi South 17.3 mph 23.0 mph 0.01 in   Scattered Clouds
12:25 PM 59.0 °F - 53.6 °F 82% 29.92 in 10.0 mi SSW 16.1 mph 25.3 mph N/A   Mostly Cloudy
12:51 PM 57.9 °F - 53.1 °F 84% 29.91 in 10.0 mi SSW 18.4 mph 24.2 mph N/A   Overcast
1:43 PM 60.8 °F - 51.8 °F 72% 29.90 in 10.0 mi WSW 17.3 mph 24.2 mph N/A   Overcast
1:51 PM 60.1 °F - 51.1 °F 72% 29.91 in 10.0 mi WSW 17.3 mph 25.3 mph N/A   Overcast
2:51 PM 60.1 °F - 51.1 °F 72% 29.92 in 10.0 mi WSW 15.0 mph - N/A   Mostly Cloudy
3:51 PM 60.1 °F - 48.0 °F 64% 29.93 in 10.0 mi WSW 16.1 mph - N/A   Overcast
4:51 PM 60.1 °F - 48.0 °F 64% 29.95 in 10.0 mi SW 11.5 mph - N/A   Overcast
5:51 PM 55.0 °F - 48.0 °F 77% 29.95 in 10.0 mi SSW 6.9 mph - N/A   Mostly Cloudy
6:51 PM 53.1 °F - 48.0 °F 83% 29.97 in 10.0 mi South 4.6 mph - N/A   Mostly Cloudy
7:51 PM 50.0 °F - 46.9 °F 89% 29.97 in 10.0 mi SSE 8.1 mph - N/A   Partly Cloudy
8:51 PM 50.0 °F - 46.9 °F 89% 29.98 in 10.0 mi SSE 5.8 mph - N/A   Partly Cloudy
9:51 PM 51.1 °F - 48.0 °F 89% 29.96 in 10.0 mi SE 8.1 mph - N/A   Scattered Clouds
10:51 PM 50.0 °F - 46.0 °F 86% 29.97 in 10.0 mi SSE 6.9 mph - N/A   Partly Cloudy
11:51 PM 52.0 °F - 46.9 °F 83% 29.96 in 10.0 mi South 6.9 mph - N/A   Scattered Clouds